| time (UTC) | temp C | wind direction | speed KPH | gust KPH | rain 1hr cm | rain 24hr cm | rain mn cm | humidity % | barometer mb |
| 20260504150513 | 19 | 281 | 3.2 | 8.0 | 0.00 | 0.00 | 0.00 | 39 | 1009.0 |
| 20260504150311 | 19 | 225 | 4.8 | 17.7 | 0.00 | 0.00 | 0.00 | 39 | 1009.0 |
| 20260504150109 | 19 | 292 | 9.7 | 17.7 | 0.00 | 0.00 | 0.00 | 38 | 1009.0 |
| 20260504141052 | 23 | 270 | 3.2 | 14.5 | 0.00 | 0.00 | 0.00 | 36 | 1008.2 |
| 20260504140849 | 23 | 270 | 4.8 | 12.9 | 0.00 | 0.00 | 0.00 | 36 | 1008.2 |
| 20260504140730 | 23 | 315 | 8.0 | 14.5 | 0.00 | 0.00 | 0.00 | 38 | 1007.9 |
| 20260504140445 | 23 | 315 | 8.0 | 14.5 | 0.00 | 0.00 | 0.00 | 38 | 1007.9 |
| 20260504140243 | 23 | 315 | 12.9 | 12.9 | 0.00 | 0.00 | 0.00 | 38 | 1007.9 |
| 20260504130810 | 21 | 292 | 11.3 | 17.7 | 0.00 | 0.00 | 0.00 | 44 | 1008.1 |
| 20260504130806 | 21 | 315 | 12.9 | 17.7 | 0.00 | 0.00 | 0.00 | 43 | 1008.2 |
| 20260504130414 | 21 | 281 | 8.0 | 12.9 | 0.00 | 0.00 | 0.00 | 44 | 1008.1 |
| 20260504130213 | 21 | 292 | 8.0 | 12.9 | 0.00 | 0.00 | 0.00 | 43 | 1008.1 |
| 20260504120126 | 21 | 315 | 4.8 | 9.7 | 0.00 | 0.00 | 0.00 | 40 | 1008.9 |
| 20260504110625 | 23 | 315 | 8.0 | 11.3 | 0.00 | 0.00 | 0.00 | 37 | 1009.2 |
| 20260504110423 | 23 | 315 | 11.3 | 12.9 | 0.00 | 0.00 | 0.00 | 37 | 1009.1 |
| 20260504110221 | 23 | 315 | 8.0 | 12.9 | 0.00 | 0.00 | 0.00 | 36 | 1009.1 |
| 20260504100555 | 23 | 337 | 6.4 | 8.0 | 0.00 | 0.00 | 0.00 | 40 | 1009.8 |
| 20260504100352 | 23 | 315 | 8.0 | 8.0 | 0.00 | 0.00 | 0.00 | 40 | 1009.9 |
| 20260504081908 | 17 | 225 | 0.0 | 6.4 | 0.00 | 0.00 | 0.00 | 56 | 1010.1 |
| 20260504081819 | 17 | 225 | 0.0 | 6.4 | 0.00 | 0.00 | 0.00 | 56 | 1010.1 |
| 20260504081616 | 17 | 337 | 0.0 | 6.4 | 0.00 | 0.00 | 0.00 | 54 | 1010.4 |
| 20260504081414 | 17 | 315 | 3.2 | 3.2 | 0.00 | 0.00 | 0.00 | 56 | 1010.3 |
| 20260504081407 | 17 | 0 | 3.2 | 8.0 | 0.00 | 0.00 | 0.00 | 56 | 1010.0 |
| 20260504081328 | 17 | 0 | 3.2 | 8.0 | 0.00 | 0.00 | 0.00 | 56 | 1010.0 |
| 20260504080519 | 17 | 292 | 4.8 | 202.8 | 0.00 | 0.00 | 0.00 | 56 | 1010.5 |
| 20260504080316 | 17 | 292 | 3.2 | 202.8 | 0.00 | 0.00 | 0.00 | 54 | 1010.5 |
| 20260504080212 | 17 | 225 | 202.8 | 202.8 | 0.00 | 0.00 | 0.00 | 54 | 1010.3 |
| 20260504070403 | 16 | 225 | 1.6 | 4.8 | 0.00 | 0.00 | 0.00 | 57 | 1010.1 |
| 20260504070200 | 16 | 225 | 1.6 | 1.6 | 0.00 | 0.00 | 0.00 | 55 | 1009.9 |
| 20260504050633 | 15 | 225 | 4.8 | 9.7 | 0.00 | 0.00 | 0.00 | 61 | 1009.6 |
| 20260504050431 | 15 | 292 | 8.0 | 9.7 | 0.00 | 0.00 | 0.00 | 59 | 1009.7 |
| 20260504050229 | 15 | 326 | 6.4 | 9.7 | 0.00 | 0.00 | 0.00 | 59 | 1009.7 |
| 20260504045454 | 15 | 292 | 6.4 | 9.7 | 0.00 | 0.00 | 0.00 | 58 | 1009.5 |
| 20260504045415 | 15 | 292 | 6.4 | 9.7 | 0.00 | 0.00 | 0.00 | 58 | 1009.5 |
| 20260504045215 | 15 | 292 | 8.0 | 11.3 | 0.00 | 0.00 | 0.00 | 60 | 1009.2 |
| 20260504044809 | 15 | 292 | 6.4 | 9.7 | 0.00 | 0.00 | 0.00 | 58 | 1009.4 |
| 20260504044202 | 15 | 292 | 4.8 | 8.0 | 0.00 | 0.00 | 0.00 | 60 | 1009.2 |
| 20260504044000 | 15 | 315 | 4.8 | 8.0 | 0.00 | 0.00 | 0.00 | 59 | 1009.4 |
| 20260504043759 | 15 | 292 | 4.8 | 6.4 | 0.00 | 0.00 | 0.00 | 59 | 1009.4 |
| 20260504043555 | 15 | 270 | 4.8 | 6.4 | 0.00 | 0.00 | 0.00 | 58 | 1009.2 |
| 20260504043353 | 15 | 281 | 4.8 | 6.4 | 0.00 | 0.00 | 0.00 | 58 | 1009.1 |
| 20260504043152 | 15 | 270 | 4.8 | 6.4 | 0.00 | 0.00 | 0.00 | 56 | 1009.2 |
| 20260504042950 | 15 | 270 | 4.8 | 6.4 | 0.00 | 0.00 | 0.00 | 61 | 1009.3 |
| 20260504042746 | 15 | 270 | 4.8 | 6.4 | 0.00 | 0.00 | 0.00 | 66 | 1009.4 |
| 20260504042343 | 15 | 292 | 1.6 | 4.8 | 0.00 | 0.00 | 0.00 | 57 | 1009.0 |
| 20260504042141 | 15 | 258 | 1.6 | 4.8 | 0.00 | 0.00 | 0.00 | 61 | 1009.2 |
| 20260504041951 | 15 | 258 | 1.6 | 1.6 | 0.00 | 0.00 | 0.00 | 57 | 1009.3 |
| 20260504041832 | 15 | 326 | 0.0 | 1.6 | 0.00 | 0.00 | 0.00 | 60 | 1009.2 |
| 20260504041735 | 15 | 326 | 0.0 | 1.6 | 0.00 | 0.00 | 0.00 | 60 | 1009.2 |
| 20260504041330 | 15 | 315 | 0.0 | 4.8 | 0.00 | 0.00 | 0.00 | 59 | 1009.1 |
| 20260504041133 | 15 | 292 | 0.0 | 4.8 | 0.00 | 0.00 | 0.00 | 58 | 1009.1 |
| 20260504040926 | 15 | 292 | 0.0 | 4.8 | 0.00 | 0.00 | 0.00 | 62 | 1009.2 |
| 20260504040727 | 15 | 292 | 3.2 | 4.8 | 0.00 | 0.00 | 0.00 | 61 | 1009.3 |
| 20260504040524 | 15 | 303 | 3.2 | 4.8 | 0.00 | 0.00 | 0.00 | 59 | 1009.2 |
| 20260504035916 | 15 | 315 | 0.0 | 4.8 | 0.00 | 0.00 | 0.00 | 60 | 1009.1 |
| 20260504035712 | 15 | 292 | 0.0 | 1.6 | 0.00 | 0.00 | 0.00 | 59 | 1009.2 |
| 20260504035512 | 15 | 292 | 0.0 | 3.2 | 0.00 | 0.00 | 0.00 | 59 | 1009.0 |
| 20260504035309 | 14 | 270 | 0.0 | 6.4 | 0.00 | 0.00 | 0.00 | 62 | 1008.9 |
| 20260504035107 | 14 | 292 | 1.6 | 6.4 | 0.00 | 0.00 | 0.00 | 59 | 1009.0 |
| 20260504034936 | 14 | 225 | 4.8 | 4.8 | 0.00 | 0.00 | 0.00 | 59 | 1009.0 |
| 20260504034903 | 14 | 225 | 4.8 | 4.8 | 0.00 | 0.00 | 0.00 | 59 | 1009.0 |
| 20260504034458 | 14 | 337 | 0.0 | 3.2 | 0.00 | 0.00 | 0.00 | 63 | 1008.8 |
| 20260504034257 | 14 | 326 | 1.6 | 3.2 | 0.00 | 0.00 | 0.00 | 57 | 1008.8 |
| 20260504034056 | 14 | 292 | 1.6 | 3.2 | 0.00 | 0.00 | 0.00 | 60 | 1008.6 |
| 20260504033931 | 14 | 247 | 3.2 | 6.4 | 0.00 | 0.00 | 0.00 | 57 | 1008.7 |
| 20260504033853 | 14 | 247 | 3.2 | 6.4 | 0.00 | 0.00 | 0.00 | 57 | 1008.7 |
| 20260504033651 | 14 | 247 | 3.2 | 6.4 | 0.00 | 0.00 | 0.00 | 60 | 1008.9 |
| 20260504033450 | 14 | 292 | 0.0 | 6.4 | 0.00 | 0.00 | 0.00 | 56 | 1008.8 |
| 20260504032933 | 14 | 270 | 3.2 | 6.4 | 0.00 | 0.00 | 0.00 | 57 | 1008.7 |
| 20260504032841 | 14 | 270 | 3.2 | 6.4 | 0.00 | 0.00 | 0.00 | 57 | 1008.7 |
| 20260504032640 | 14 | 270 | 1.6 | 1.6 | 0.00 | 0.00 | 0.00 | 60 | 1008.9 |
| 20260504032411 | 15 | 292 | 6.4 | 8.0 | 0.00 | 0.00 | 0.00 | 60 | 1008.5 |
| 20260504032331 | 15 | 292 | 6.4 | 8.0 | 0.00 | 0.00 | 0.00 | 60 | 1008.5 |
| 20260504032128 | 15 | 292 | 3.2 | 8.0 | 0.00 | 0.00 | 0.00 | 58 | 1008.9 |
| 20260504031926 | 15 | 315 | 8.0 | 8.0 | 0.00 | 0.00 | 0.00 | 59 | 1008.9 |
| 20260504031602 | 15 | 315 | 4.8 | 4.8 | 0.00 | 0.00 | 0.00 | 58 | 1009.0 |
| 20260504031521 | 15 | 315 | 4.8 | 4.8 | 0.00 | 0.00 | 0.00 | 58 | 1009.0 |
| 20260504031319 | 15 | 315 | 4.8 | 4.8 | 0.00 | 0.00 | 0.00 | 59 | 1008.5 |
| 20260504031117 | 15 | 292 | 4.8 | 4.8 | 0.00 | 0.00 | 0.00 | 59 | 1008.9 |
| 20260504030914 | 15 | 315 | 3.2 | 3.2 | 0.00 | 0.00 | 0.00 | 58 | 1008.9 |
| 20260504030712 | 15 | 303 | 0.0 | 1.6 | 0.00 | 0.00 | 0.00 | 59 | 1008.6 |
| 20260504030514 | 15 | 337 | 0.0 | 202.8 | 0.00 | 0.00 | 0.00 | 55 | 1008.7 |
| 20260504030307 | 15 | 292 | 1.6 | 202.8 | 0.00 | 0.00 | 0.00 | 56 | 1008.6 |
| 20260504030206 | 15 | 292 | 202.8 | 202.8 | 0.00 | 0.00 | 0.00 | 58 | 1008.7 |
| 20260504025840 | 15 | 326 | 1.6 | 3.2 | 0.00 | 0.00 | 0.00 | 54 | 1008.3 |
| 20260504025637 | 15 | 292 | 0.0 | 8.0 | 0.00 | 0.00 | 0.00 | 59 | 1008.4 |
| 20260504025435 | 15 | 315 | 4.8 | 8.0 | 0.00 | 0.00 | 0.00 | 58 | 1008.3 |
| 20260504025237 | 15 | 326 | 6.4 | 11.3 | 0.00 | 0.00 | 0.00 | 57 | 1008.5 |
| 20260504025031 | 15 | 281 | 8.0 | 207.6 | 0.00 | 0.00 | 0.00 | 58 | 1008.7 |
| 20260504024828 | 15 | 0 | 9.7 | 207.6 | 0.00 | 0.00 | 0.00 | 57 | 1008.7 |
| 20260504024639 | 15 | 225 | 11.3 | 11.3 | 0.00 | 0.00 | 0.00 | 58 | 1008.2 |
| 20260504024436 | 15 | 225 | 8.0 | 9.7 | 0.00 | 0.00 | 0.00 | 58 | 1008.6 |
| 20260504024234 | 15 | 225 | 8.0 | 8.0 | 0.00 | 0.00 | 0.00 | 58 | 1008.5 |
| 20260504024031 | 15 | 225 | 1.6 | 4.8 | 0.00 | 0.00 | 0.00 | 54 | 1007.9 |
| 20260504023829 | 15 | 292 | 3.2 | 4.8 | 0.00 | 0.00 | 0.00 | 57 | 1008.4 |
| 20260504023737 | 15 | 225 | 0.0 | 1.6 | 0.00 | 0.00 | 0.00 | 55 | 1008.7 |
| 20260504023627 | 15 | 247 | 3.2 | 3.2 | 0.00 | 0.00 | 0.00 | 58 | 1008.5 |
| 20260504023424 | 15 | 236 | 3.2 | 3.2 | 0.00 | 0.00 | 0.00 | 58 | 1008.2 |
| 20260504023223 | 15 | 225 | 0.0 | 1.6 | 0.00 | 0.00 | 0.00 | 55 | 1008.7 |
| 20260504022820 | 15 | 225 | 1.6 | 3.2 | 0.00 | 0.00 | 0.00 | 58 | 1008.5 |
| 20260504022311 | 15 | 236 | 199.6 | 199.6 | 0.00 | 0.00 | 0.00 | 58 | 1008.6 |
| 20260504022157 | 15 | 225 | 1.6 | 1.6 | 0.00 | 0.00 | 0.00 | 58 | 1008.4 |
| 20260504022025 | 15 | 247 | 1.6 | 6.4 | 0.00 | 0.00 | 0.00 | 58 | 1008.8 |
| 20260504021822 | 15 | 225 | 3.2 | 6.4 | 0.00 | 0.00 | 0.00 | 60 | 1008.6 |
| 20260504021417 | 15 | 236 | 3.2 | 4.8 | 0.00 | 0.00 | 0.00 | 58 | 1008.5 |
| 20260504021215 | 15 | 225 | 3.2 | 3.2 | 0.00 | 0.00 | 0.00 | 57 | 1008.4 |
| 20260504021013 | 15 | 236 | 1.6 | 3.2 | 0.00 | 0.00 | 0.00 | 55 | 1008.6 |
| 20260504020811 | 15 | 247 | 0.0 | 1.6 | 0.00 | 0.00 | 0.00 | 58 | 1008.5 |
| 20260504020406 | 15 | 247 | 0.0 | 1.6 | 0.00 | 0.00 | 0.00 | 61 | 1008.6 |
| 20260504020204 | 15 | 0 | 0.0 | 1.6 | 0.00 | 0.00 | 0.00 | 58 | 1008.9 |
| 20260504020002 | 15 | 337 | 1.6 | 201.2 | 0.00 | 0.00 | 0.00 | 57 | 1008.7 |
| 20260504015800 | 16 | 303 | 1.6 | 201.2 | 0.00 | 0.00 | 0.00 | 58 | 1008.4 |
| 20260504015657 | 16 | 292 | 201.2 | 201.2 | 0.00 | 0.00 | 0.00 | 56 | 1008.6 |
| 20260504014913 | 16 | 247 | 3.2 | 202.8 | 0.00 | 0.00 | 0.00 | 60 | 1008.5 |
| 20260504014751 | 16 | 236 | 1.6 | 201.2 | 0.00 | 0.00 | 0.00 | 59 | 1008.6 |
| 20260504014742 | 16 | 247 | 201.2 | 201.2 | 0.00 | 0.00 | 0.00 | 59 | 1008.8 |
| 20260504014649 | 16 | 247 | 201.2 | 201.2 | 0.00 | 0.00 | 0.00 | 59 | 1008.8 |
| 20260504014514 | 16 | 225 | 1.6 | 6.4 | 0.00 | 0.00 | 0.00 | 56 | 1008.5 |
| 20260504014401 | 16 | 236 | 4.8 | 6.4 | 0.00 | 0.00 | 0.00 | 54 | 1008.6 |
| 20260504014311 | 16 | 236 | 4.8 | 6.4 | 0.00 | 0.00 | 0.00 | 54 | 1008.6 |
| 20260504014149 | 16 | 225 | 4.8 | 4.8 | 0.00 | 0.00 | 0.00 | 61 | 1008.8 |
| 20260504014116 | 16 | 225 | 4.8 | 4.8 | 0.00 | 0.00 | 0.00 | 61 | 1008.8 |
| 20260504013906 | 16 | 225 | 3.2 | 6.4 | 0.00 | 0.00 | 0.00 | 58 | 1008.8 |
| 20260504013506 | 16 | 236 | 3.2 | 202.8 | 0.00 | 0.00 | 0.00 | 58 | 1008.6 |
| 20260504013157 | 16 | 225 | 202.8 | 202.8 | 0.00 | 0.00 | 0.00 | 55 | 1008.6 |
| 20260504012823 | 16 | 225 | 4.8 | 4.8 | 0.00 | 0.00 | 0.00 | 57 | 1008.7 |
| 20260504012216 | 16 | 225 | 3.2 | 202.8 | 0.00 | 0.00 | 0.00 | 58 | 1008.6 |
| 20260504012114 | 16 | 225 | 202.8 | 202.8 | 0.00 | 0.00 | 0.00 | 60 | 1009.0 |
| 20260504011845 | 16 | 247 | 0.0 | 1.6 | 0.00 | 0.00 | 0.00 | 60 | 1009.1 |
| 20260504011648 | 16 | 225 | 1.6 | 1.6 | 0.00 | 0.00 | 0.00 | 56 | 1008.9 |
| 20260504011511 | 16 | 303 | 0.0 | 0.0 | 0.00 | 0.00 | 0.00 | 59 | 1008.9 |
| 20260504011439 | 16 | 303 | 0.0 | 0.0 | 0.00 | 0.00 | 0.00 | 59 | 1008.9 |
| 20260504010834 | 16 | 225 | 1.6 | 3.2 | 0.00 | 0.00 | 0.00 | 58 | 1008.9 |
| 20260504010631 | 16 | 225 | 1.6 | 1.6 | 0.00 | 0.00 | 0.00 | 59 | 1009.1 |
| 20260504010417 | 16 | 236 | 0.0 | 3.2 | 0.00 | 0.00 | 0.00 | 59 | 1009.1 |
| 20260504010214 | 16 | 225 | 3.2 | 3.2 | 0.00 | 0.00 | 0.00 | 60 | 1008.3 |
| 20260504010012 | 16 | 247 | 1.6 | 1.6 | 0.00 | 0.00 | 0.00 | 58 | 1009.2 |
| 20260504005810 | 16 | 225 | 0.0 | 0.0 | 0.00 | 0.00 | 0.00 | 58 | 1008.9 |
| 20260504005304 | 16 | 247 | 199.6 | 199.6 | 0.00 | 0.00 | 0.00 | 58 | 1009.1 |
| 20260504005110 | 16 | 315 | 1.6 | 4.8 | 0.00 | 0.00 | 0.00 | 56 | 1009.2 |
| 20260504004910 | 16 | 292 | 3.2 | 3.2 | 0.00 | 0.00 | 0.00 | 59 | 1009.0 |
| 20260504004708 | 16 | 303 | 3.2 | 204.4 | 0.00 | 0.00 | 0.00 | 59 | 1009.2 |
| 20260504004704 | 16 | 303 | 3.2 | 204.4 | 0.00 | 0.00 | 0.00 | 59 | 1009.2 |
| 20260504004502 | 16 | 326 | 4.8 | 204.4 | 0.00 | 0.00 | 0.00 | 59 | 1009.0 |
| 20260504004401 | 16 | 281 | 204.4 | 204.4 | 0.00 | 0.00 | 0.00 | 59 | 1008.9 |
| 20260504004308 | 16 | 348 | 4.8 | 4.8 | 0.00 | 0.00 | 0.00 | 58 | 1009.3 |
| 20260504004106 | 16 | 0 | 3.2 | 3.2 | 0.00 | 0.00 | 0.00 | 56 | 1009.0 |
| 20260504003903 | 16 | 292 | 1.6 | 1.6 | 0.00 | 0.00 | 0.00 | 55 | 1009.0 |
| 20260504003706 | 16 | 292 | 1.6 | 1.6 | 0.00 | 0.00 | 0.00 | 58 | 1009.3 |
| 20260504003457 | 16 | 292 | 1.6 | 199.6 | 0.00 | 0.00 | 0.00 | 59 | 1009.1 |
| 20260504003257 | 16 | 247 | 0.0 | 199.6 | 0.00 | 0.00 | 0.00 | 58 | 1008.7 |
| 20260504003154 | 16 | 292 | 199.6 | 199.6 | 0.00 | 0.00 | 0.00 | 59 | 1009.2 |
| 20260504003107 | 16 | 247 | 0.0 | 0.0 | 0.00 | 0.00 | 0.00 | 59 | 1009.4 |
| 20260504002905 | 16 | 247 | 0.0 | 0.0 | 0.00 | 0.00 | 0.00 | 60 | 1009.3 |
| 20260504002702 | 16 | 247 | 0.0 | 0.0 | 0.00 | 0.00 | 0.00 | 58 | 1009.1 |
| 20260504002500 | 16 | 247 | 0.0 | 201.2 | 0.00 | 0.00 | 0.00 | 58 | 1009.2 |
| 20260504002258 | 15 | 0 | 0.0 | 201.2 | 0.00 | 0.00 | 0.00 | 59 | 1009.0 |
| 20260504002154 | 15 | 326 | 201.2 | 201.2 | 0.00 | 0.00 | 0.00 | 58 | 1009.1 |
| 20260504002121 | 15 | 292 | 1.6 | 3.2 | 0.00 | 0.00 | 0.00 | 65 | 1008.9 |
| 20260504001914 | 15 | 236 | 1.6 | 3.2 | 0.00 | 0.00 | 0.00 | 58 | 1008.9 |
| 20260504001712 | 15 | 236 | 3.2 | 3.2 | 0.00 | 0.00 | 0.00 | 60 | 1009.1 |
| 20260504001510 | 15 | 337 | 1.6 | 3.2 | 0.00 | 0.00 | 0.00 | 59 | 1009.2 |
| 20260504001308 | 15 | 247 | 1.6 | 1.6 | 0.00 | 0.00 | 0.00 | 59 | 1008.5 |
| 20260504000955 | 15 | 247 | 1.6 | 3.2 | 0.00 | 0.00 | 0.00 | 59 | 1009.2 |
| 20260504000754 | 15 | 247 | 0.0 | 3.2 | 0.00 | 0.00 | 0.00 | 59 | 1009.3 |
| 20260504000554 | 15 | 45 | 0.0 | 3.2 | 0.00 | 0.00 | 0.00 | 59 | 1009.3 |
| 20260504000350 | 15 | 236 | 3.2 | 3.2 | 0.00 | 0.00 | 0.00 | 58 | 1009.2 |
| 20260504000153 | 15 | 292 | 0.0 | 204.4 | 0.00 | 0.00 | 0.00 | 59 | 1009.1 |
| 20260503235946 | 15 | 303 | 4.8 | 204.4 | 0.00 | 0.00 | 0.00 | 59 | 1009.3 |
| 20260503235843 | 15 | 303 | 204.4 | 204.4 | 0.00 | 0.00 | 0.00 | 60 | 1009.4 |
| 20260503235656 | 15 | 326 | 1.6 | 1.6 | 0.00 | 0.00 | 0.00 | 59 | 1009.1 |
| 20260503235454 | 15 | 315 | 0.0 | 0.0 | 0.00 | 0.00 | 0.00 | 59 | 1009.3 |
| 20260503235252 | 15 | 292 | 0.0 | 1.6 | 0.00 | 0.00 | 0.00 | 59 | 1009.3 |
| 20260503234852 | 15 | 292 | 1.6 | 3.2 | 0.00 | 0.00 | 0.00 | 59 | 1008.9 |
| 20260503234449 | 15 | 315 | 6.4 | 9.7 | 0.00 | 0.00 | 0.00 | 59 | 1009.2 |
| 20260503234248 | 15 | 303 | 6.4 | 9.7 | 0.00 | 0.00 | 0.00 | 59 | 1009.2 |
| 20260503234114 | 15 | 337 | 8.0 | 8.0 | 0.00 | 0.00 | 0.00 | 57 | 1009.2 |
| 20260503234043 | 15 | 337 | 8.0 | 8.0 | 0.00 | 0.00 | 0.00 | 57 | 1009.2 |
| 20260503233841 | 15 | 292 | 4.8 | 4.8 | 0.00 | 0.00 | 0.00 | 62 | 1009.5 |
| 20260503233641 | 15 | 0 | 0.0 | 4.8 | 0.00 | 0.00 | 0.00 | 59 | 1009.2 |
| 20260503233439 | 15 | 247 | 0.0 | 4.8 | 0.00 | 0.00 | 0.00 | 59 | 1009.2 |
| 20260503233236 | 15 | 292 | 3.2 | 3.2 | 0.00 | 0.00 | 0.00 | 58 | 1009.1 |
| 20260503233135 | 15 | 236 | 1.6 | 1.6 | 0.00 | 0.00 | 0.00 | 59 | 1009.0 |
| 20260503233118 | 15 | 236 | 3.2 | 3.2 | 0.00 | 0.00 | 0.00 | 60 | 1009.1 |
| 20260503232915 | 15 | 247 | 1.6 | 3.2 | 0.00 | 0.00 | 0.00 | 60 | 1009.3 |
| 20260503232712 | 15 | 225 | 3.2 | 3.2 | 0.00 | 0.00 | 0.00 | 60 | 1009.1 |
| 20260503232309 | 15 | 0 | 1.6 | 1.6 | 0.00 | 0.00 | 0.00 | 62 | 1009.4 |
| 20260503232025 | 15 | 315 | 0.0 | 0.0 | 0.00 | 0.00 | 0.00 | 60 | 1009.5 |
| 20260503231823 | 15 | 315 | 0.0 | 0.0 | 0.00 | 0.00 | 0.00 | 59 | 1009.2 |
| 20260503231510 | 15 | 225 | 1.6 | 3.2 | 0.00 | 0.00 | 0.00 | 60 | 1009.5 |
| 20260503231418 | 15 | 225 | 1.6 | 3.2 | 0.00 | 0.00 | 0.00 | 60 | 1009.5 |
| 20260503231217 | 15 | 225 | 1.6 | 3.2 | 0.00 | 0.00 | 0.00 | 58 | 1009.6 |
| 20260503230812 | 15 | 247 | 0.0 | 0.0 | 0.00 | 0.00 | 0.00 | 58 | 1009.6 |
| 20260503230609 | 15 | 247 | 0.0 | 0.0 | 0.00 | 0.00 | 0.00 | 58 | 1009.3 |
| 20260503230406 | 15 | 247 | 0.0 | 0.0 | 0.00 | 0.00 | 0.00 | 55 | 1009.7 |
| 20260503230006 | 15 | 292 | 3.2 | 4.8 | 0.00 | 0.00 | 0.00 | 57 | 1009.7 |
| 20260503225921 | 15 | 236 | 3.2 | 6.4 | 0.00 | 0.00 | 0.00 | 58 | 1009.6 |
| 20260503225802 | 15 | 236 | 3.2 | 6.4 | 0.00 | 0.00 | 0.00 | 58 | 1009.6 |
| 20260503225433 | 15 | 303 | 6.4 | 11.3 | 0.00 | 0.00 | 0.00 | 59 | 1009.8 |
| 20260503225359 | 15 | 303 | 6.4 | 11.3 | 0.00 | 0.00 | 0.00 | 59 | 1009.8 |
| 20260503225232 | 15 | 225 | 3.2 | 8.0 | 0.00 | 0.00 | 0.00 | 60 | 1009.5 |
| 20260503225157 | 15 | 225 | 3.2 | 8.0 | 0.00 | 0.00 | 0.00 | 60 | 1009.5 |
| 20260503224954 | 15 | 326 | 1.6 | 8.0 | 0.00 | 0.00 | 0.00 | 56 | 1009.4 |
| 20260503224752 | 15 | 315 | 8.0 | 8.0 | 0.00 | 0.00 | 0.00 | 56 | 1009.5 |
| 20260503224348 | 15 | 258 | 1.6 | 3.2 | 0.00 | 0.00 | 0.00 | 57 | 1009.5 |
| 20260503224145 | 15 | 292 | 3.2 | 3.2 | 0.00 | 0.00 | 0.00 | 59 | 1009.7 |
| 20260503224120 | 15 | 0 | 1.6 | 6.4 | 0.00 | 0.00 | 0.00 | 55 | 1009.7 |
| 20260503223923 | 15 | 225 | 3.2 | 4.8 | 0.00 | 0.00 | 0.00 | 58 | 1009.2 |
| 20260503223719 | 15 | 0 | 3.2 | 4.8 | 0.00 | 0.00 | 0.00 | 59 | 1009.6 |
| 20260503223512 | 15 | 0 | 1.6 | 1.6 | 0.00 | 0.00 | 0.00 | 59 | 1009.8 |
| 20260503223314 | 15 | 337 | 0.0 | 1.6 | 0.00 | 0.00 | 0.00 | 58 | 1009.5 |
| 20260503222906 | 15 | 225 | 4.8 | 204.4 | 0.00 | 0.00 | 0.00 | 55 | 1009.2 |
| 20260503222803 | 15 | 326 | 204.4 | 204.4 | 0.00 | 0.00 | 0.00 | 57 | 1009.3 |
| 20260503222726 | 16 | 292 | 3.2 | 14.5 | 0.00 | 0.00 | 0.00 | 59 | 1009.3 |
| 20260503222523 | 15 | 292 | 11.3 | 14.5 | 0.00 | 0.00 | 0.00 | 58 | 1009.4 |
| 20260503222115 | 16 | 270 | 6.4 | 8.0 | 0.00 | 0.00 | 0.00 | 59 | 1009.2 |
| 20260503221916 | 16 | 270 | 3.2 | 8.0 | 0.00 | 0.00 | 0.00 | 60 | 1009.8 |
| 20260503221712 | 16 | 270 | 8.0 | 8.0 | 0.00 | 0.00 | 0.00 | 59 | 1009.7 |
| 20260503221509 | 16 | 292 | 6.4 | 8.0 | 0.00 | 0.00 | 0.00 | 58 | 1009.4 |
| 20260503221347 | 16 | 270 | 6.4 | 6.4 | 0.00 | 0.00 | 0.00 | 54 | 1009.9 |
| 20260503221311 | 16 | 270 | 6.4 | 6.4 | 0.00 | 0.00 | 0.00 | 54 | 1009.9 |
| 20260503221105 | 16 | 270 | 6.4 | 6.4 | 0.00 | 0.00 | 0.00 | 58 | 1009.5 |
| 20260503220904 | 16 | 315 | 4.8 | 4.8 | 0.00 | 0.00 | 0.00 | 59 | 1009.9 |
| 20260503220408 | 16 | 292 | 4.8 | 9.7 | 0.00 | 0.00 | 0.00 | 59 | 1009.9 |
| 20260503220333 | 16 | 292 | 4.8 | 9.7 | 0.00 | 0.00 | 0.00 | 59 | 1009.9 |
| 20260503220133 | 16 | 292 | 3.2 | 4.8 | 0.00 | 0.00 | 0.00 | 57 | 1009.7 |
| 20260503215727 | 16 | 292 | 1.6 | 4.8 | 0.00 | 0.00 | 0.00 | 59 | 1009.6 |
| 20260503215409 | 16 | 270 | 1.6 | 1.6 | 0.00 | 0.00 | 0.00 | 58 | 1009.9 |
| 20260503215322 | 16 | 270 | 1.6 | 1.6 | 0.00 | 0.00 | 0.00 | 58 | 1009.9 |
| 20260503215120 | 16 | 225 | 1.6 | 1.6 | 0.00 | 0.00 | 0.00 | 59 | 1009.5 |
| 20260503214844 | 16 | 225 | 1.6 | 9.7 | 0.00 | 0.00 | 0.00 | 56 | 1009.9 |
| 20260503214439 | 16 | 292 | 6.4 | 8.0 | 0.00 | 0.00 | 0.00 | 58 | 1009.4 |
| 20260503213832 | 16 | 225 | 6.4 | 6.4 | 0.00 | 0.00 | 0.00 | 60 | 1009.8 |
| 20260503213633 | 16 | 292 | 6.4 | 6.4 | 0.00 | 0.00 | 0.00 | 58 | 1009.7 |
| 20260503213449 | 16 | 270 | 6.4 | 6.4 | 0.00 | 0.00 | 0.00 | 63 | 1009.8 |
| 20260503213247 | 16 | 281 | 4.8 | 6.4 | 0.00 | 0.00 | 0.00 | 59 | 1009.6 |
| 20260503212946 | 16 | 281 | 1.6 | 3.2 | 0.00 | 0.00 | 0.00 | 56 | 1009.5 |
| 20260503212305 | 16 | 292 | 6.4 | 9.7 | 0.00 | 0.00 | 0.00 | 58 | 1009.4 |
| 20260503212106 | 16 | 292 | 6.4 | 9.7 | 0.00 | 0.00 | 0.00 | 59 | 1009.4 |
| 20260503211900 | 16 | 292 | 3.2 | 6.4 | 0.00 | 0.00 | 0.00 | 57 | 1009.7 |
| 20260503211151 | 16 | 337 | 202.8 | 202.8 | 0.00 | 0.00 | 0.00 | 59 | 1009.9 |
| 20260503210902 | 16 | 292 | 4.8 | 14.5 | 0.00 | 0.00 | 0.00 | 57 | 1009.5 |
| 20260503210700 | 16 | 303 | 8.0 | 14.5 | 0.00 | 0.00 | 0.00 | 55 | 1009.6 |
| 20260503210458 | 16 | 292 | 8.0 | 12.9 | 0.00 | 0.00 | 0.00 | 59 | 1009.6 |
| 20260503210256 | 16 | 292 | 6.4 | 12.9 | 0.00 | 0.00 | 0.00 | 57 | 1009.6 |
| 20260503205851 | 16 | 315 | 4.8 | 12.9 | 0.00 | 0.00 | 0.00 | 54 | 1009.4 |
| 20260503205649 | 16 | 281 | 8.0 | 14.5 | 0.00 | 0.00 | 0.00 | 58 | 1009.7 |
| 20260503205447 | 16 | 292 | 8.0 | 14.5 | 0.00 | 0.00 | 0.00 | 56 | 1009.5 |
| 20260503205146 | 16 | 303 | 8.0 | 11.3 | 0.00 | 0.00 | 0.00 | 57 | 1009.3 |
| 20260503204945 | 16 | 292 | 6.4 | 9.7 | 0.00 | 0.00 | 0.00 | 58 | 1009.4 |
| 20260503204337 | 16 | 292 | 4.8 | 9.7 | 0.00 | 0.00 | 0.00 | 58 | 1009.6 |
| 20260503204134 | 16 | 315 | 4.8 | 9.7 | 0.00 | 0.00 | 0.00 | 56 | 1009.2 |
| 20260503203730 | 16 | 225 | 1.6 | 1.6 | 0.00 | 0.00 | 0.00 | 53 | 1009.5 |
| 20260503203524 | 16 | 337 | 3.2 | 11.3 | 0.00 | 0.00 | 0.00 | 57 | 1009.7 |
| 20260503203325 | 16 | 315 | 6.4 | 11.3 | 0.00 | 0.00 | 0.00 | 58 | 1009.4 |
| 20260503203121 | 16 | 315 | 1.6 | 4.8 | 0.00 | 0.00 | 0.00 | 59 | 1009.5 |
| 20260503202919 | 16 | 348 | 4.8 | 201.2 | 0.00 | 0.00 | 0.00 | 58 | 1009.6 |
| 20260503202717 | 16 | 225 | 9.7 | 201.2 | 0.00 | 0.00 | 0.00 | 58 | 1009.5 |
| 20260503202442 | 16 | 337 | 1.6 | 6.4 | 0.00 | 0.00 | 0.00 | 59 | 1009.1 |
| 20260503202316 | 16 | 326 | 6.4 | 6.4 | 0.00 | 0.00 | 0.00 | 59 | 1009.2 |
| 20260503202239 | 16 | 326 | 6.4 | 6.4 | 0.00 | 0.00 | 0.00 | 59 | 1009.2 |
| 20260503201835 | 16 | 270 | 1.6 | 9.7 | 0.00 | 0.00 | 0.00 | 62 | 1009.5 |
| 20260503201633 | 16 | 281 | 6.4 | 202.8 | 0.00 | 0.00 | 0.00 | 57 | 1009.0 |
| 20260503201430 | 16 | 315 | 0.0 | 202.8 | 0.00 | 0.00 | 0.00 | 54 | 1009.3 |
| 20260503201328 | 16 | 292 | 202.8 | 202.8 | 0.00 | 0.00 | 0.00 | 58 | 1009.5 |
| 20260503201125 | 16 | 225 | 4.8 | 4.8 | 0.00 | 0.00 | 0.00 | 57 | 1008.8 |
| 20260503200922 | 16 | 292 | 1.6 | 4.8 | 0.00 | 0.00 | 0.00 | 57 | 1008.9 |
| 20260503200720 | 16 | 292 | 4.8 | 8.0 | 0.00 | 0.00 | 0.00 | 58 | 1008.9 |
| 20260503200214 | 16 | 303 | 209.2 | 209.2 | 0.00 | 0.00 | 0.00 | 58 | 1009.1 |
| 20260503200022 | 16 | 292 | 4.8 | 11.3 | 0.00 | 0.00 | 0.00 | 59 | 1008.8 |
| 20260503195415 | 16 | 315 | 4.8 | 202.8 | 0.00 | 0.00 | 0.00 | 58 | 1009.1 |
| 20260503194752 | 16 | 0 | 3.2 | 6.4 | 0.00 | 0.00 | 0.00 | 53 | 1008.8 |
| 20260503194144 | 16 | 292 | 6.4 | 11.3 | 0.00 | 0.00 | 0.00 | 59 | 1008.9 |
| 20260503193942 | 16 | 292 | 4.8 | 210.8 | 0.00 | 0.00 | 0.00 | 55 | 1008.7 |
| 20260503193638 | 16 | 281 | 210.8 | 210.8 | 0.00 | 0.00 | 0.00 | 54 | 1008.5 |
| 20260503193137 | 16 | 326 | 9.7 | 14.5 | 0.00 | 0.00 | 0.00 | 58 | 1008.5 |
| 20260503192934 | 16 | 247 | 6.4 | 9.7 | 0.00 | 0.00 | 0.00 | 57 | 1008.6 |
| 20260503192732 | 16 | 292 | 3.2 | 6.4 | 0.00 | 0.00 | 0.00 | 55 | 1008.4 |
| 20260503192530 | 16 | 292 | 3.2 | 8.0 | 0.00 | 0.00 | 0.00 | 55 | 1008.4 |
| 20260503192125 | 16 | 258 | 3.2 | 3.2 | 0.00 | 0.00 | 0.00 | 59 | 1008.5 |
| 20260503192038 | 16 | 292 | 6.4 | 9.7 | 0.00 | 0.00 | 0.00 | 58 | 1008.4 |
| 20260503191834 | 16 | 292 | 6.4 | 9.7 | 0.00 | 0.00 | 0.00 | 56 | 1008.5 |
| 20260503191429 | 16 | 225 | 1.6 | 6.4 | 0.00 | 0.00 | 0.00 | 56 | 1008.6 |
| 20260503191227 | 16 | 315 | 1.6 | 3.2 | 0.00 | 0.00 | 0.00 | 59 | 1008.3 |
| 20260503191025 | 16 | 292 | 1.6 | 3.2 | 0.00 | 0.00 | 0.00 | 53 | 1008.4 |
| 20260503190857 | 16 | 270 | 3.2 | 3.2 | 0.00 | 0.00 | 0.00 | 57 | 1008.6 |
| 20260503190822 | 16 | 270 | 3.2 | 3.2 | 0.00 | 0.00 | 0.00 | 57 | 1008.6 |
| 20260503190620 | 16 | 225 | 0.0 | 3.2 | 0.00 | 0.00 | 0.00 | 58 | 1008.5 |
| 20260503190216 | 16 | 225 | 1.6 | 201.2 | 0.00 | 0.00 | 0.00 | 56 | 1008.5 |
| 20260503190114 | 16 | 225 | 201.2 | 201.2 | 0.00 | 0.00 | 0.00 | 53 | 1008.3 |
| 20260503185946 | 16 | 225 | 1.6 | 4.8 | 0.00 | 0.00 | 0.00 | 57 | 1008.2 |
| 20260503185743 | 16 | 225 | 1.6 | 4.8 | 0.00 | 0.00 | 0.00 | 57 | 1007.8 |
| 20260503185339 | 16 | 45 | 3.2 | 199.6 | 0.00 | 0.00 | 0.00 | 57 | 1008.3 |
| 20260503185137 | 16 | 225 | 6.4 | 199.6 | 0.00 | 0.00 | 0.00 | 56 | 1008.2 |
| 20260503184840 | 16 | 292 | 6.4 | 6.4 | 0.00 | 0.00 | 0.00 | 52 | 1008.2 |
| 20260503184233 | 16 | 303 | 4.8 | 11.3 | 0.00 | 0.00 | 0.00 | 56 | 1008.0 |
| 20260503184031 | 16 | 326 | 8.0 | 14.5 | 0.00 | 0.00 | 0.00 | 55 | 1007.7 |
| 20260503183829 | 16 | 326 | 9.7 | 14.5 | 0.00 | 0.00 | 0.00 | 56 | 1007.9 |
| 20260503183627 | 16 | 0 | 14.5 | 14.5 | 0.00 | 0.00 | 0.00 | 57 | 1007.9 |
| 20260503183337 | 16 | 0 | 9.7 | 11.3 | 0.00 | 0.00 | 0.00 | 55 | 1007.9 |
| 20260503182729 | 16 | 326 | 6.4 | 6.4 | 0.00 | 0.00 | 0.00 | 59 | 1007.5 |
| 20260503182712 | 16 | 337 | 11.3 | 207.6 | 0.00 | 0.00 | 0.00 | 56 | 1007.5 |
| 20260503182609 | 16 | 45 | 207.6 | 207.6 | 0.00 | 0.00 | 0.00 | 56 | 1007.5 |
| 20260503182459 | 16 | 247 | 4.8 | 11.3 | 0.00 | 0.00 | 0.00 | 57 | 1007.8 |
| 20260503182257 | 16 | 270 | 8.0 | 11.3 | 0.00 | 0.00 | 0.00 | 56 | 1007.8 |
| 20260503182055 | 16 | 0 | 11.3 | 12.9 | 0.00 | 0.00 | 0.00 | 56 | 1007.8 |
| 20260503181852 | 16 | 292 | 8.0 | 209.2 | 0.00 | 0.00 | 0.00 | 55 | 1007.9 |
| 20260503181650 | 16 | 236 | 9.7 | 209.2 | 0.00 | 0.00 | 0.00 | 56 | 1007.6 |
| 20260503181548 | 16 | 236 | 209.2 | 209.2 | 0.00 | 0.00 | 0.00 | 55 | 1007.6 |
| 20260503180800 | 16 | 236 | 6.4 | 20.9 | 0.00 | 0.00 | 0.00 | 56 | 1007.2 |
| 20260503180355 | 16 | 270 | 9.7 | 14.5 | 0.00 | 0.00 | 0.00 | 55 | 1007.5 |
| 20260503180153 | 16 | 236 | 14.5 | 19.3 | 0.00 | 0.00 | 0.00 | 55 | 1007.7 |
| 20260503175546 | 16 | 326 | 11.3 | 14.5 | 0.00 | 0.00 | 0.00 | 56 | 1007.6 |
| 20260503175344 | 17 | 281 | 6.4 | 12.9 | 0.00 | 0.00 | 0.00 | 57 | 1007.8 |
| 20260503174737 | 17 | 270 | 14.5 | 19.3 | 0.00 | 0.00 | 0.00 | 56 | 1007.5 |
| 20260503174332 | 17 | 292 | 12.9 | 14.5 | 0.00 | 0.00 | 0.00 | 52 | 1007.8 |
| 20260503174130 | 17 | 247 | 9.7 | 14.5 | 0.00 | 0.00 | 0.00 | 56 | 1008.0 |
| 20260503173726 | 17 | 292 | 6.4 | 16.1 | 0.00 | 0.00 | 0.00 | 55 | 1007.7 |
| 20260503173524 | 17 | 247 | 8.0 | 8.0 | 0.00 | 0.00 | 0.00 | 56 | 1008.0 |
| 20260503173205 | 17 | 225 | 11.3 | 17.7 | 0.00 | 0.00 | 0.00 | 55 | 1007.5 |
| 20260503172559 | 17 | 292 | 4.8 | 6.4 | 0.00 | 0.00 | 0.00 | 57 | 1007.6 |
| 20260503172356 | 17 | 247 | 6.4 | 6.4 | 0.00 | 0.00 | 0.00 | 58 | 1008.2 |
| 20260503172215 | 17 | 315 | 3.2 | 14.5 | 0.00 | 0.00 | 0.00 | 54 | 1007.9 |
| 20260503172014 | 17 | 0 | 12.9 | 14.5 | 0.00 | 0.00 | 0.00 | 56 | 1008.2 |
| 20260503171609 | 17 | 292 | 9.7 | 14.5 | 0.00 | 0.00 | 0.00 | 57 | 1008.2 |
| 20260503171407 | 17 | 281 | 8.0 | 204.4 | 0.00 | 0.00 | 0.00 | 57 | 1008.0 |
| 20260503171205 | 17 | 303 | 6.4 | 204.4 | 0.00 | 0.00 | 0.00 | 57 | 1008.3 |
| 20260503171103 | 17 | 292 | 204.4 | 204.4 | 0.00 | 0.00 | 0.00 | 56 | 1008.3 |
| 20260503170943 | 17 | 292 | 9.7 | 11.3 | 0.00 | 0.00 | 0.00 | 52 | 1008.2 |
| 20260503170740 | 17 | 247 | 9.7 | 16.1 | 0.00 | 0.00 | 0.00 | 57 | 1008.1 |
| 20260503170335 | 17 | 326 | 8.0 | 14.5 | 0.00 | 0.00 | 0.00 | 56 | 1008.3 |
| 20260503170134 | 17 | 292 | 14.5 | 206.0 | 0.00 | 0.00 | 0.00 | 56 | 1008.6 |
| 20260503150952 | 19 | 292 | 20.9 | 27.4 | 0.00 | 0.00 | 0.00 | 50 | 1009.3 |
| 20260503150753 | 19 | 303 | 14.5 | 29.0 | 0.00 | 0.00 | 0.00 | 51 | 1009.4 |